Time,TemperatureF,DewpointF,PressureIn,WindDirection,WindDirectionDegrees,WindSpeedMPH,WindSpeedGustMPH,Humidity,HourlyPrecipIn,Conditions,Clouds,dailyrainin,SolarRadiationWatts/m^2,SoftwareType,DateUTC
2013-04-16 00:02:00,19.0,16.0,-100.00,WNW,291,2.0,5.0,87,0.00,,,0.00,1.000000,,2013-04-16 06:02:00,
2013-04-16 00:12:00,19.0,16.0,-100.00,WNW,291,2.0,5.0,87,0.00,,,0.00,1.000000,,2013-04-16 06:12:00,
2013-04-16 00:22:00,19.0,16.0,-100.00,WNW,291,2.0,5.0,87,0.00,,,0.00,1.000000,,2013-04-16 06:22:00,
2013-04-16 00:42:00,17.0,14.0,-100.00,NE,34,1.0,3.0,88,0.00,,,0.00,0.000000,,2013-04-16 06:42:00,
2013-04-16 00:52:00,17.0,14.0,-100.00,NE,34,1.0,3.0,88,0.00,,,0.00,0.000000,,2013-04-16 06:52:00,
2013-04-16 01:02:00,17.0,14.0,-100.00,NE,34,1.0,3.0,88,0.00,,,0.00,0.000000,,2013-04-16 07:02:00,
2013-04-16 01:12:00,17.0,14.0,-100.00,NE,34,1.0,3.0,88,0.00,,,0.00,0.000000,,2013-04-16 07:12:00,
2013-04-16 01:22:00,17.0,14.0,-100.00,NE,34,1.0,3.0,88,0.00,,,0.00,0.000000,,2013-04-16 07:22:00,
2013-04-16 01:42:00,17.0,15.0,-100.00,SE,139,0.0,4.0,92,0.00,,,0.00,1.000000,,2013-04-16 07:42:00,
2013-04-16 01:53:00,17.0,15.0,-100.00,SE,139,0.0,4.0,92,0.00,,,0.00,1.000000,,2013-04-16 07:53:00,
2013-04-16 02:02:00,17.0,15.0,-100.00,SE,139,0.0,4.0,92,0.00,,,0.00,1.000000,,2013-04-16 08:02:00,
2013-04-16 02:12:00,17.0,15.0,-100.00,SE,139,0.0,4.0,92,0.00,,,0.00,1.000000,,2013-04-16 08:12:00,
2013-04-16 02:22:00,17.0,15.0,-100.00,SE,139,0.0,4.0,92,0.00,,,0.00,1.000000,,2013-04-16 08:22:00,
2013-04-16 02:42:00,18.0,16.0,-100.00,South,173,4.0,6.0,90,0.00,,,0.00,0.000000,,2013-04-16 08:42:00,
2013-04-16 02:52:00,18.0,16.0,-100.00,South,173,4.0,6.0,90,0.00,,,0.00,0.000000,,2013-04-16 08:52:00,
2013-04-16 03:02:00,18.0,16.0,-100.00,South,173,4.0,6.0,90,0.00,,,0.00,0.000000,,2013-04-16 09:02:00,
2013-04-16 03:12:00,18.0,16.0,-100.00,South,173,4.0,6.0,90,0.00,,,0.00,0.000000,,2013-04-16 09:12:00,
2013-04-16 03:22:00,18.0,16.0,-100.00,South,173,4.0,6.0,90,0.00,,,0.00,0.000000,,2013-04-16 09:22:00,
2013-04-16 03:43:00,18.0,15.0,-100.00,SSW,211,3.0,6.0,89,0.00,,,0.00,1.000000,,2013-04-16 09:43:00,
2013-04-16 03:53:00,18.0,15.0,-100.00,SSW,211,3.0,6.0,89,0.00,,,0.00,1.000000,,2013-04-16 09:53:00,
2013-04-16 04:03:00,18.0,15.0,-100.00,SSW,211,3.0,6.0,89,0.00,,,0.00,1.000000,,2013-04-16 10:03:00,
2013-04-16 04:13:00,18.0,15.0,-100.00,SSW,211,3.0,6.0,89,0.00,,,0.00,1.000000,,2013-04-16 10:13:00,
2013-04-16 04:22:00,18.0,15.0,-100.00,SSW,211,3.0,6.0,89,0.00,,,0.00,1.000000,,2013-04-16 10:22:00,
2013-04-16 04:43:00,17.0,14.0,-100.00,SW,217,3.0,7.0,88,0.00,,,0.00,0.000000,,2013-04-16 10:43:00,
2013-04-16 04:53:00,17.0,14.0,-100.00,SW,217,3.0,7.0,88,0.00,,,0.00,0.000000,,2013-04-16 10:53:00,
2013-04-16 05:02:00,17.0,14.0,-100.00,SW,217,3.0,7.0,88,0.00,,,0.00,0.000000,,2013-04-16 11:02:00,
2013-04-16 05:12:00,17.0,14.0,-100.00,SW,217,3.0,7.0,88,0.00,,,0.00,0.000000,,2013-04-16 11:12:00,
2013-04-16 05:22:00,17.0,14.0,-100.00,SW,217,3.0,7.0,88,0.00,,,0.00,0.000000,,2013-04-16 11:22:00,
2013-04-16 05:42:00,17.0,14.0,-100.00,WNW,284,1.0,6.0,87,0.00,,,0.00,0.000000,,2013-04-16 11:42:00,
2013-04-16 05:53:00,17.0,14.0,-100.00,WNW,284,1.0,6.0,87,0.00,,,0.00,0.000000,,2013-04-16 11:53:00,
2013-04-16 06:02:00,17.0,14.0,-100.00,WNW,284,1.0,6.0,87,0.00,,,0.00,0.000000,,2013-04-16 12:02:00,
2013-04-16 06:12:00,17.0,14.0,-100.00,WNW,284,1.0,6.0,87,0.00,,,0.00,0.000000,,2013-04-16 12:12:00,
2013-04-16 06:22:00,17.0,14.0,-100.00,WNW,284,1.0,6.0,87,0.00,,,0.00,0.000000,,2013-04-16 12:22:00,
2013-04-16 06:42:00,17.0,13.0,-100.00,North,1,1.0,3.0,84,0.00,,,0.00,2.000000,,2013-04-16 12:42:00,
2013-04-16 06:52:00,17.0,13.0,-100.00,North,1,1.0,3.0,84,0.00,,,0.00,2.000000,,2013-04-16 12:52:00,
2013-04-16 07:02:00,17.0,13.0,-100.00,North,1,1.0,3.0,84,0.00,,,0.00,2.000000,,2013-04-16 13:02:00,
2013-04-16 07:12:00,17.0,13.0,-100.00,North,1,1.0,3.0,84,0.00,,,0.00,2.000000,,2013-04-16 13:12:00,
2013-04-16 07:22:00,17.0,13.0,-100.00,North,1,1.0,3.0,84,0.00,,,0.00,2.000000,,2013-04-16 13:22:00,
2013-04-16 07:42:00,19.0,14.0,-100.00,NNW,346,1.0,2.0,80,0.00,,,0.00,40.000000,,2013-04-16 13:42:00,
2013-04-16 07:52:00,19.0,14.0,-100.00,NNW,346,1.0,2.0,80,0.00,,,0.00,40.000000,,2013-04-16 13:52:00,
2013-04-16 08:02:00,19.0,14.0,-100.00,NNW,346,1.0,2.0,80,0.00,,,0.00,40.000000,,2013-04-16 14:02:00,
2013-04-16 08:12:00,19.0,14.0,-100.00,NNW,346,1.0,2.0,80,0.00,,,0.00,40.000000,,2013-04-16 14:12:00,
2013-04-16 08:22:00,19.0,14.0,-100.00,NNW,346,1.0,2.0,80,0.00,,,0.00,40.000000,,2013-04-16 14:22:00,
2013-04-16 08:42:00,19.0,14.0,-100.00,North,10,2.0,5.0,82,0.00,,,0.00,69.000000,,2013-04-16 14:42:00,
2013-04-16 08:52:00,19.0,14.0,-100.00,North,10,2.0,5.0,82,0.00,,,0.00,69.000000,,2013-04-16 14:52:00,
2013-04-16 09:02:00,19.0,14.0,-100.00,North,10,2.0,5.0,82,0.00,,,0.00,69.000000,,2013-04-16 15:02:00,
2013-04-16 09:12:00,19.0,14.0,-100.00,North,10,2.0,5.0,82,0.00,,,0.00,69.000000,,2013-04-16 15:12:00,
2013-04-16 09:22:00,19.0,14.0,-100.00,North,10,2.0,5.0,82,0.00,,,0.00,69.000000,,2013-04-16 15:22:00,
2013-04-16 09:43:00,22.0,17.0,-100.00,ESE,120,3.0,7.0,82,0.00,,,0.00,98.000000,,2013-04-16 15:43:00,
2013-04-16 09:53:00,22.0,17.0,-100.00,ESE,120,3.0,7.0,82,0.00,,,0.00,98.000000,,2013-04-16 15:53:00,
2013-04-16 10:03:00,22.0,17.0,-100.00,ESE,120,3.0,7.0,82,0.00,,,0.00,98.000000,,2013-04-16 16:03:00,
2013-04-16 10:13:00,22.0,17.0,-100.00,ESE,120,3.0,7.0,82,0.00,,,0.00,98.000000,,2013-04-16 16:13:00,
2013-04-16 10:23:00,22.0,17.0,-100.00,ESE,120,3.0,7.0,82,0.00,,,0.00,98.000000,,2013-04-16 16:23:00,
2013-04-16 10:42:00,23.0,17.0,-100.00,East,94,4.0,10.0,78,0.00,,,0.00,157.000000,,2013-04-16 16:42:00,
2013-04-16 10:53:00,23.0,17.0,-100.00,East,94,4.0,10.0,78,0.00,,,0.00,157.000000,,2013-04-16 16:53:00,
2013-04-16 11:02:00,23.0,17.0,-100.00,East,94,4.0,10.0,78,0.00,,,0.00,157.000000,,2013-04-16 17:02:00,
2013-04-16 11:12:00,23.0,17.0,-100.00,East,94,4.0,10.0,78,0.00,,,0.00,157.000000,,2013-04-16 17:12:00,
2013-04-16 11:22:00,23.0,17.0,-100.00,East,94,4.0,10.0,78,0.00,,,0.00,157.000000,,2013-04-16 17:22:00,
2013-04-16 11:43:00,22.0,16.0,-100.00,SE,141,4.0,11.0,77,0.00,,,0.00,204.000000,,2013-04-16 17:43:00,
2013-04-16 11:53:00,22.0,16.0,-100.00,SE,141,4.0,11.0,77,0.00,,,0.00,204.000000,,2013-04-16 17:53:00,
2013-04-16 12:02:00,22.0,16.0,-100.00,SE,141,4.0,11.0,77,0.00,,,0.00,204.000000,,2013-04-16 18:02:00,
2013-04-16 12:12:00,22.0,16.0,-100.00,SE,141,4.0,11.0,77,0.00,,,0.00,204.000000,,2013-04-16 18:12:00,
2013-04-16 12:22:00,22.0,16.0,-100.00,SE,141,4.0,11.0,77,0.00,,,0.00,204.000000,,2013-04-16 18:22:00,
2013-04-16 12:43:00,25.0,17.0,-100.00,ESE,122,3.0,9.0,72,0.00,,,0.00,262.000000,,2013-04-16 18:43:00,
2013-04-16 12:52:00,25.0,17.0,-100.00,ESE,122,3.0,9.0,72,0.00,,,0.00,262.000000,,2013-04-16 18:52:00,
2013-04-16 13:02:00,25.0,17.0,-100.00,ESE,122,3.0,9.0,72,0.00,,,0.00,262.000000,,2013-04-16 19:02:00,
2013-04-16 13:12:00,25.0,17.0,-100.00,ESE,122,3.0,9.0,72,0.00,,,0.00,262.000000,,2013-04-16 19:12:00,
2013-04-16 13:22:00,25.0,17.0,-100.00,ESE,122,3.0,9.0,72,0.00,,,0.00,262.000000,,2013-04-16 19:22:00,
2013-04-16 13:43:00,24.0,17.0,-100.00,East,82,6.0,11.0,73,0.00,,,0.00,320.000000,,2013-04-16 19:43:00,
2013-04-16 13:52:00,24.0,17.0,-100.00,East,82,6.0,11.0,73,0.00,,,0.00,320.000000,,2013-04-16 19:52:00,
2013-04-16 14:02:00,24.0,17.0,-100.00,East,82,6.0,11.0,73,0.00,,,0.00,320.000000,,2013-04-16 20:02:00,
2013-04-16 14:12:00,24.0,17.0,-100.00,East,82,6.0,11.0,73,0.00,,,0.00,320.000000,,2013-04-16 20:12:00,
2013-04-16 14:22:00,24.0,17.0,-100.00,East,82,6.0,11.0,73,0.00,,,0.00,320.000000,,2013-04-16 20:22:00,
2013-04-16 14:52:00,25.0,17.0,-100.00,ESE,117,4.0,12.0,71,0.01,,,0.01,388.000000,,2013-04-16 20:52:00,
2013-04-16 15:02:00,25.0,17.0,-100.00,ESE,117,4.0,12.0,71,0.01,,,0.01,388.000000,,2013-04-16 21:02:00,
2013-04-16 15:12:00,25.0,17.0,-100.00,ESE,117,4.0,12.0,71,0.01,,,0.01,388.000000,,2013-04-16 21:12:00,
2013-04-16 15:22:00,25.0,17.0,-100.00,ESE,117,4.0,12.0,71,0.01,,,0.01,388.000000,,2013-04-16 21:22:00,
2013-04-16 15:43:00,21.0,16.0,-100.00,East,99,3.0,9.0,82,0.01,,,0.02,204.000000,,2013-04-16 21:43:00,
2013-04-16 15:53:00,21.0,16.0,-100.00,East,99,3.0,9.0,82,0.01,,,0.02,204.000000,,2013-04-16 21:53:00,
2013-04-16 16:03:00,21.0,16.0,-100.00,East,99,3.0,9.0,82,0.01,,,0.02,204.000000,,2013-04-16 22:03:00,
2013-04-16 16:13:00,21.0,16.0,-100.00,East,99,3.0,9.0,82,0.01,,,0.02,204.000000,,2013-04-16 22:13:00,
2013-04-16 16:22:00,21.0,16.0,-100.00,East,99,3.0,9.0,82,0.01,,,0.02,204.000000,,2013-04-16 22:22:00,
2013-04-16 16:43:00,20.0,16.0,-100.00,ENE,72,3.0,7.0,84,0.00,,,0.02,57.000000,,2013-04-16 22:43:00,
2013-04-16 16:52:00,20.0,16.0,-100.00,ENE,72,3.0,7.0,84,0.00,,,0.02,57.000000,,2013-04-16 22:52:00,
2013-04-16 17:02:00,20.0,16.0,-100.00,ENE,72,3.0,7.0,84,0.00,,,0.02,57.000000,,2013-04-16 23:02:00,
2013-04-16 17:12:00,20.0,16.0,-100.00,ENE,72,3.0,7.0,84,0.00,,,0.02,57.000000,,2013-04-16 23:12:00,
2013-04-16 17:22:00,20.0,16.0,-100.00,ENE,72,3.0,7.0,84,0.00,,,0.02,57.000000,,2013-04-16 23:22:00,
2013-04-16 17:43:00,20.0,16.0,-100.00,East,83,3.0,8.0,84,0.00,,,0.02,41.000000,,2013-04-16 23:43:00,
2013-04-16 17:52:00,20.0,16.0,-100.00,East,83,3.0,8.0,84,0.00,,,0.02,41.000000,,2013-04-16 23:52:00,
2013-04-16 18:02:00,20.0,16.0,-100.00,East,83,3.0,8.0,84,0.00,,,0.02,41.000000,,2013-04-17 00:02:00,
2013-04-16 18:12:00,20.0,16.0,-100.00,East,83,3.0,8.0,84,0.00,,,0.02,41.000000,,2013-04-17 00:12:00,
2013-04-16 18:22:00,20.0,16.0,-100.00,East,83,3.0,8.0,84,0.00,,,0.02,41.000000,,2013-04-17 00:22:00,
2013-04-16 18:42:00,19.0,16.0,-100.00,ENE,73,3.0,7.0,86,0.00,,,0.02,26.000000,,2013-04-17 00:42:00,
2013-04-16 18:52:00,19.0,16.0,-100.00,ENE,73,3.0,7.0,86,0.00,,,0.02,26.000000,,2013-04-17 00:52:00,
2013-04-16 19:02:00,19.0,16.0,-100.00,ENE,73,3.0,7.0,86,0.00,,,0.02,26.000000,,2013-04-17 01:02:00,
2013-04-16 19:12:00,19.0,16.0,-100.00,ENE,73,3.0,7.0,86,0.00,,,0.02,26.000000,,2013-04-17 01:12:00,
2013-04-16 19:22:00,19.0,16.0,-100.00,ENE,73,3.0,7.0,86,0.00,,,0.02,26.000000,,2013-04-17 01:22:00,
2013-04-16 19:42:00,18.0,15.0,-100.00,NNE,33,2.0,7.0,87,0.00,,,0.02,14.000000,,2013-04-17 01:42:00,
2013-04-16 19:52:00,18.0,15.0,-100.00,NNE,33,2.0,7.0,87,0.00,,,0.02,14.000000,,2013-04-17 01:52:00,
2013-04-16 20:02:00,18.0,15.0,-100.00,NNE,33,2.0,7.0,87,0.00,,,0.02,14.000000,,2013-04-17 02:02:00,
2013-04-16 20:12:00,18.0,15.0,-100.00,NNE,33,2.0,7.0,87,0.00,,,0.02,14.000000,,2013-04-17 02:12:00,
2013-04-16 20:22:00,18.0,15.0,-100.00,NNE,33,2.0,7.0,87,0.00,,,0.02,14.000000,,2013-04-17 02:22:00,
2013-04-16 20:42:00,18.0,15.0,-100.00,NE,34,2.0,5.0,89,0.00,,,0.02,1.000000,,2013-04-17 02:42:00,
2013-04-16 20:52:00,18.0,15.0,-100.00,NE,34,2.0,5.0,89,0.00,,,0.02,1.000000,,2013-04-17 02:52:00,
2013-04-16 21:02:00,18.0,15.0,-100.00,NE,34,2.0,5.0,89,0.00,,,0.02,1.000000,,2013-04-17 03:02:00,
2013-04-16 21:12:00,18.0,15.0,-100.00,NE,34,2.0,5.0,89,0.00,,,0.02,1.000000,,2013-04-17 03:12:00,
2013-04-16 21:22:00,18.0,15.0,-100.00,NE,34,2.0,5.0,89,0.00,,,0.02,1.000000,,2013-04-17 03:22:00,
2013-04-16 21:42:00,18.0,15.0,-100.00,North,11,2.0,5.0,87,0.00,,,0.02,1.000000,,2013-04-17 03:42:00,
2013-04-16 21:53:00,18.0,15.0,-100.00,North,11,2.0,5.0,87,0.00,,,0.02,1.000000,,2013-04-17 03:53:00,
2013-04-16 22:03:00,18.0,15.0,-100.00,North,11,2.0,5.0,87,0.00,,,0.02,1.000000,,2013-04-17 04:03:00,
2013-04-16 22:13:00,18.0,15.0,-100.00,North,11,2.0,5.0,87,0.00,,,0.02,1.000000,,2013-04-17 04:13:00,
2013-04-16 22:22:00,18.0,15.0,-100.00,North,11,2.0,5.0,87,0.00,,,0.02,1.000000,,2013-04-17 04:22:00,
2013-04-16 22:42:00,18.0,15.0,-100.00,NNW,336,2.0,4.0,88,0.00,,,0.02,0.000000,,2013-04-17 04:42:00,
2013-04-16 22:52:00,18.0,15.0,-100.00,NNW,336,2.0,4.0,88,0.00,,,0.02,0.000000,,2013-04-17 04:52:00,
2013-04-16 23:02:00,18.0,15.0,-100.00,NNW,336,2.0,4.0,88,0.00,,,0.02,0.000000,,2013-04-17 05:02:00,
2013-04-16 23:12:00,18.0,15.0,-100.00,NNW,336,2.0,4.0,88,0.00,,,0.02,0.000000,,2013-04-17 05:12:00,
2013-04-16 23:22:00,18.0,15.0,-100.00,NNW,336,2.0,4.0,88,0.00,,,0.02,0.000000,,2013-04-17 05:22:00,
2013-04-16 23:43:00,17.0,14.0,-100.00,NNW,345,3.0,6.0,88,0.00,,,0.02,1.000000,,2013-04-17 05:43:00,
2013-04-16 23:52:00,17.0,14.0,-100.00,NNW,345,3.0,6.0,88,0.00,,,0.02,1.000000,,2013-04-17 05:52:00,